Wind_Speed
17 17 17 17 17 17 17 17 18 17 17 17 16 15 15 16 18 20 19 10 9 15 20 17 18 15 12 5 5 2 3 2 3 4 7 6 4 4 5 9 10 13 7 4 28
17 18 18 18 18 18 18 18 18 19 18 18 18 18 17 17 19 17 5 3 7 16 22 21 20 18 6 5 4 4 3 4 3 7 8 16 13 11 10 14 11 9 10 7 29
18 18 18 18 19 19 19 19 19 18 18 18 18 18 17 17 16 3 10 5 5 14 19 18 12 9 5 4 8 7 5 6 8 14 15 14 18 7 13 11 17 20 16 16 29
18 18 19 20 21 21 21 20 20 20 19 17 17 17 17 13 5 6 4 7 2 12 17 20 16 9 6 7 8 6 14 16 8 9 7 11 14 5 18 28 10 15 22 22 33
19 20 21 21 23 23 23 22 20 20 21 18 16 16 15 8 13 12 15 11 10 17 20 19 15 9 7 6 9 12 15 14 16 15 12 13 14 10 18 17 10 7 19 24 33
22 23 24 24 25 26 25 23 21 19 18 18 15 15 12 8 10 10 10 4 8 18 19 18 8 11 7 10 11 9 13 20 14 15 11 8 5 4 6 12 14 15 19 29 35
24 25 24 24 25 24 23 19 18 16 14 12 12 13 15 20 10 8 7 6 5 8 12 13 16 10 0 6 7 11 13 17 17 11 12 7 8 6 7 4 14 24 32 29 35
23 23 22 22 24 23 21 17 13 13 12 11 7 8 9 9 11 15 20 22 19 14 15 16 12 13 9 10 7 4 4 12 12 4 2 4 17 9 5 7 12 22 24 26 34
24 23 24 24 24 25 20 17 12 9 6 8 2 4 6 5 5 7 6 8 8 8 12 6 9 10 5 7 8 6 13 13 13 1 3 3 9 15 6 12 16 21 23 24 26
24 25 24 24 22 20 20 16 10 3 2 3 1 1 2 6 10 9 11 12 9 3 4 8 8 8 7 9 13 12 13 11 12 8 5 12 15 17 18 15 21 19 21 28 27
24 26 24 22 21 18 19 7 6 2 4 1 6 6 11 13 13 5 4 9 11 3 5 8 8 15 18 18 19 16 12 12 5 9 11 17 15 14 25 22 21 17 22 28 37
24 25 23 19 15 17 12 10 11 7 9 3 4 8 10 13 7 5 5 8 9 13 8 6 16 11 16 19 15 15 16 13 9 11 6 12 20 19 16 12 17 14 20 27 23
24 23 21 20 7 16 7 11 13 12 3 6 6 5 6 10 6 4 3 6 7 11 14 16 10 11 16 17 15 18 19 12 11 8 9 11 11 8 13 15 15 15 13 16 26
21 22 21 21 6 14 4 10 14 6 2 7 3 3 8 13 5 13 4 5 3 7 10 11 14 15 15 17 16 18 15 16 9 8 11 2 13 11 13 10 10 17 10 16 21
20 21 20 18 14 8 6 10 9 1 2 11 5 7 19 1 10 3 6 4 6 5 5 7 7 14 16 20 17 16 7 10 10 9 4 13 6 9 8 12 12 10 14 16 19
19 20 21 17 9 4 6 7 0 3 1 4 6 9 11 4 4 9 1 2 2 4 9 10 7 5 9 11 17 14 8 2 2 4 7 14 8 7 7 7 6 9 13 16 20
20 19 17 9 6 5 5 1 2 1 2 6 5 9 8 5 8 8 7 3 3 5 3 6 15 13 11 12 6 10 8 5 6 5 9 4 6 7 16 15 16 14 13 14 17
19 17 4 7 8 6 4 1 1 1 2 3 5 8 3 7 3 9 8 7 5 2 5 4 4 9 9 12 7 12 12 6 5 7 11 3 7 3 9 16 16 16 18 22 21
18 10 1 4 7 7 1 2 2 1 2 7 6 2 3 3 4 6 5 4 5 10 6 4 4 3 8 3 8 3 4 10 3 3 5 5 6 10 7 11 6 10 19 21 22
17 6 2 1 5 6 1 2 2 3 2 1 2 2 3 4 5 6 6 3 8 11 6 1 6 5 2 4 5 4 7 4 4 6 13 13 16 11 16 15 16 14 17 17 16
13 2 4 1 5 3 2 0 3 5 5 4 2 3 4 3 4 3 4 5 10 15 9 4 3 5 3 3 6 4 4 2 4 1 12 14 13 4 9 10 12 11 14 14 9
5 2 2 2 1 2 1 1 4 4 1 3 3 4 3 3 4 3 3 3 14 15 8 3 3 5 6 4 5 1 4 2 6 6 8 8 17 1 6 6 8 11 12 9 6
10 4 2 2 2 2 1 2 3 3 3 2 2 1 0 2 3 2 4 7 9 12 8 8 2 6 6 4 3 3 5 6 8 6 15 12 13 4 6 7 10 11 11 9 6
5 1 2 2 3 2 0 1 3 3 3 3 3 2 3 2 2 4 6 5 15 11 6 3 2 4 7 5 4 5 6 6 8 7 12 13 14 4 7 8 8 11 11 10 9
3 1 0 1 2 1 1 1 2 3 2 4 2 3 3 3 4 3 5 11 10 4 5 6 5 4 10 13 9 7 7 1 3 9 12 16 10 2 4 6 8 8 10 13 11
1 1 1 0 2 2 3 4 4 2 2 1 3 10 5 5 3 8 8 8 8 5 5 3 5 7 14 8 9 12 1 5 6 5 7 12 6 3 7 3 6 12 13 14 12
2 2 0 1 1 3 3 3 5 2 4 6 6 8 8 6 11 22 23 26 20 12 7 4 4 5 12 5 12 7 2 2 3 3 6 7 5 4 5 6 11 13 12 14 14
Wind_Direction
354 351 348 344 340 336 332 327 323 321 319 319 321 323 319 319 316 312 306 280 234 206 189 185 173 179 179 206 217 254 253 286 350 321 310 307 261 207 211 196 185 195 242 271 174
351 349 346 342 339 335 331 327 321 316 313 310 312 313 317 323 322 312 301 267 215 200 193 189 176 169 186 205 199 222 260 224 235 287 287 301 286 288 194 200 212 204 218 231 184
345 343 340 337 334 331 327 324 319 314 308 303 302 303 310 321 327 156 82 75 170 186 202 198 190 165 218 209 199 190 230 242 253 273 297 298 300 260 211 221 212 215 194 199 192
332 331 330 329 327 324 321 319 314 308 302 301 299 298 301 306 284 203 248 326 333 181 195 191 177 183 209 220 222 252 243 248 265 278 280 296 302 267 210 236 209 229 212 201 195
332 330 329 328 325 323 322 317 308 302 299 298 295 291 291 276 253 254 270 283 203 189 197 190 180 194 217 210 222 241 266 264 254 266 268 275 270 279 243 246 230 214 197 203 198
333 334 332 331 329 328 330 323 310 302 300 293 287 285 273 257 266 254 266 241 191 198 197 200 205 226 269 250 248 248 268 269 274 283 278 262 271 190 288 217 211 222 205 207 203
332 332 330 331 327 328 329 322 310 308 307 307 282 266 259 259 265 257 224 193 239 255 238 254 253 246 269 263 278 265 276 276 265 271 270 243 251 235 268 236 205 218 240 203 203
328 333 336 334 334 335 336 330 317 306 309 322 306 258 249 275 271 265 255 260 271 271 270 269 257 241 228 260 277 297 257 264 275 215 239 267 271 254 245 208 241 233 222 214 203
332 339 343 343 340 339 342 332 319 310 297 329 308 223 268 313 306 284 249 216 300 263 251 210 199 220 188 224 250 223 252 245 268 116 279 216 290 300 304 288 279 246 222 217 206
337 341 345 346 343 345 351 340 333 342 314 341 18 282 279 320 310 241 241 252 284 219 170 180 199 205 193 202 232 237 234 245 258 275 267 274 280 291 294 280 286 254 219 211 211
339 343 346 349 347 353 2 10 5 338 5 343 288 277 313 320 321 355 330 204 188 191 229 191 209 218 213 218 239 261 249 255 237 269 287 282 280 286 295 299 285 251 217 212 221
340 341 347 351 352 3 15 52 40 340 315 313 326 295 322 330 321 342 158 194 189 223 203 202 239 234 229 228 231 234 244 252 264 250 240 288 293 290 290 275 288 261 220 219 214
342 342 346 354 9 5 32 24 356 347 272 302 319 294 322 325 311 300 222 202 223 229 211 235 260 217 218 227 230 237 243 241 249 276 263 283 276 275 285 289 286 268 242 225 213
347 344 346 357 9 359 7 345 341 335 350 353 350 356 335 318 265 317 255 225 207 246 224 242 230 216 219 229 227 246 228 248 246 257 274 240 291 292 289 291 276 283 246 229 222
350 342 341 346 338 347 324 330 336 99 151 336 323 321 333 355 314 335 316 194 253 238 203 235 210 210 224 227 219 245 228 227 228 238 265 267 263 287 282 282 273 253 254 259 234
345 339 333 337 349 341 329 326 103 252 105 349 329 343 353 344 332 315 334 210 285 272 235 271 293 260 238 236 223 236 219 133 119 210 246 265 240 274 292 243 245 239 246 253 263
341 337 332 358 5 350 341 51 267 309 331 360 334 335 330 315 337 7 355 26 321 319 320 282 244 246 257 269 228 206 213 232 221 192 250 171 198 263 273 266 253 258 252 264 266
342 338 7 33 16 4 354 178 210 35 334 331 316 320 330 360 328 337 6 30 49 279 289 294 284 196 194 223 223 199 202 212 273 253 261 153 245 244 268 294 281 284 284 279 264
342 345 47 35 19 5 342 93 108 196 305 321 317 355 344 342 339 340 1 353 358 360 341 308 271 260 233 179 189 136 166 220 85 339 267 272 268 273 250 286 310 318 301 286 284
343 344 351 11 6 2 79 119 237 223 305 309 307 344 317 327 331 335 346 45 358 357 333 328 285 253 305 190 151 230 160 234 186 194 255 275 275 274 294 315 334 343 320 320 313
337 314 326 190 355 29 84 237 283 273 232 197 221 288 268 290 295 304 330 314 7 340 335 328 260 303 217 211 301 191 202 204 206 281 276 263 272 239 289 320 320 335 323 317 313
341 277 352 108 22 33 95 282 311 302 337 244 243 247 251 293 290 289 312 299 345 333 329 358 295 288 294 326 344 347 24 324 237 201 221 263 259 163 325 1 1 351 345 326 310
336 296 326 164 176 118 313 280 265 303 323 334 274 282 258 284 295 269 294 305 336 343 350 342 279 300 300 157 61 11 360 354 321 256 226 233 262 123 28 50 29 11 5 4 359
339 287 19 97 97 130 114 292 311 287 268 318 279 332 321 253 216 299 303 303 327 317 317 312 280 277 283 282 305 298 337 18 359 290 252 233 256 180 19 11 4 10 17 33 45
353 33 75 118 127 96 249 288 285 313 332 354 157 352 279 273 299 259 297 304 304 294 327 356 281 275 284 262 268 275 266 179 302 291 270 270 228 58 38 41 354 16 30 42 56
344 241 359 318 301 219 188 211 211 305 275 291 338 330 293 233 271 296 302 289 288 289 333 347 268 290 283 260 271 280 278 271 324 360 329 312 245 62 80 41 61 56 49 49 61
219 221 245 190 186 219 209 186 166 338 233 254 336 322 285 283 306 287 276 265 262 285 294 293 278 270 278 287 306 256 274 214 262 353 356 290 8 149 117 119 73 66 61 64 59
Height
1541 1539 1536 1535 1533 1531 1528 1526 1524 1522 1521 1519 1518 1517 1515 1513 1510 1507 1505 1505 1504 1507 1508 1509 1512 1515 1517 1518 1519 1519 1514 1512 1506 1506 1502 1500 1500 1499 1500 1501 1502 1504 1506 1507 1507
1541 1538 1535 1533 1531 1528 1526 1524 1521 1519 1518 1516 1515 1513 1512 1511 1508 1504 1504 1503 1503 1505 1508 1509 1511 1514 1517 1517 1517 1517 1514 1506 1501 1499 1498 1496 1497 1496 1498 1498 1499 1501 1503 1506 1508
1540 1537 1535 1531 1528 1526 1523 1521 1518 1516 1514 1512 1511 1510 1509 1509 1507 1503 1502 1502 1502 1504 1508 1511 1513 1516 1517 1516 1513 1510 1507 1501 1499 1498 1496 1493 1491 1492 1491 1493 1490 1493 1498 1503 1508
1539 1536 1532 1529 1526 1523 1520 1518 1515 1512 1510 1510 1508 1507 1506 1507 1508 1501 1501 1502 1504 1505 1507 1508 1510 1513 1513 1512 1512 1511 1503 1501 1497 1496 1495 1493 1489 1488 1486 1479 1486 1488 1492 1497 1502
1536 1533 1529 1526 1522 1519 1516 1513 1510 1508 1506 1506 1505 1504 1504 1504 1500 1500 1500 1500 1501 1503 1506 1507 1509 1510 1509 1508 1509 1508 1500 1499 1497 1496 1494 1492 1488 1485 1481 1485 1486 1486 1490 1494 1498
1533 1530 1526 1522 1518 1514 1511 1508 1504 1503 1501 1500 1500 1501 1501 1502 1496 1496 1497 1498 1500 1501 1504 1505 1506 1507 1508 1507 1506 1499 1498 1496 1495 1493 1492 1489 1485 1484 1479 1479 1484 1484 1485 1486 1489
1530 1527 1523 1519 1515 1511 1508 1504 1500 1498 1497 1496 1495 1496 1495 1494 1493 1494 1495 1496 1498 1501 1502 1504 1505 1507 1506 1503 1502 1500 1499 1493 1490 1490 1489 1487 1483 1481 1477 1478 1479 1479 1478 1482 1485
1528 1525 1521 1517 1512 1508 1503 1500 1497 1494 1494 1493 1492 1493 1491 1489 1490 1489 1491 1492 1494 1496 1497 1498 1500 1504 1504 1503 1500 1498 1498 1498 1483 1487 1486 1488 1485 1474 1475 1477 1478 1476 1476 1478 1480
1526 1522 1518 1514 1509 1504 1500 1496 1493 1492 1492 1491 1491 1491 1489 1488 1488 1487 1488 1490 1491 1492 1492 1494 1496 1499 1500 1500 1501 1498 1501 1496 1489 1486 1485 1485 1485 1475 1477 1474 1473 1471 1471 1475 1478
1523 1519 1515 1511 1506 1502 1498 1493 1490 1490 1491 1491 1490 1493 1487 1487 1485 1485 1486 1486 1489 1489 1490 1492 1494 1492 1493 1494 1501 1495 1496 1493 1496 1484 1484 1482 1481 1473 1474 1474 1469 1467 1465 1466 1468
1521 1517 1513 1509 1505 1502 1497 1492 1494 1493 1489 1490 1491 1489 1485 1485 1481 1480 1478 1481 1485 1487 1486 1488 1489 1487 1486 1484 1482 1483 1490 1492 1491 1484 1485 1478 1476 1470 1464 1464 1461 1459 1458 1459 1457
1520 1516 1512 1508 1505 1503 1500 1498 1502 1504 1495 1489 1488 1486 1485 1483 1481 1478 1479 1481 1480 1479 1482 1486 1482 1482 1482 1480 1484 1484 1485 1486 1485 1481 1483 1475 1471 1463 1458 1457 1456 1455 1452 1451 1459
1518 1514 1511 1507 1504 1503 1501 1501 1501 1500 1500 1490 1488 1486 1485 1483 1480 1477 1478 1477 1477 1477 1475 1477 1474 1476 1477 1479 1483 1479 1481 1482 1483 1477 1475 1476 1471 1462 1453 1451 1449 1447 1446 1449 1450
1517 1513 1509 1506 1506 1503 1503 1502 1500 1499 1497 1491 1487 1486 1484 1481 1479 1475 1474 1477 1475 1474 1475 1473 1466 1470 1471 1473 1474 1477 1472 1473 1478 1481 1485 1474 1482 1462 1451 1449 1444 1441 1441 1442 1444
1516 1512 1509 1506 1505 1504 1505 1502 1501 1501 1506 1493 1488 1487 1483 1483 1480 1474 1473 1474 1473 1471 1473 1466 1465 1467 1468 1465 1464 1466 1466 1469 1471 1475 1480 1470 1481 1458 1452 1447 1437 1434 1435 1435 1437
1515 1511 1507 1505 1503 1503 1502 1501 1502 1502 1506 1495 1491 1489 1483 1480 1478 1474 1473 1473 1472 1471 1470 1467 1465 1463 1458 1457 1460 1458 1465 1473 1477 1473 1486 1466 1474 1460 1450 1441 1432 1430 1431 1432 1432
1513 1510 1505 1504 1503 1502 1501 1502 1504 1503 1501 1501 1496 1492 1491 1485 1477 1476 1475 1472 1475 1479 1473 1465 1458 1458 1459 1461 1458 1462 1467 1482 1486 1484 1481 1465 1473 1457 1435 1431 1431 1426 1428 1430 1430
1511 1508 1505 1504 1503 1502 1501 1502 1508 1508 1504 1500 1496 1491 1490 1486 1481 1478 1476 1476 1473 1475 1473 1470 1468 1454 1450 1451 1454 1457 1457 1476 1494 1484 1473 1473 1466 1446 1430 1428 1428 1428 1425 1424 1424
1510 1507 1505 1504 1503 1502 1503 1503 1505 1505 1503 1501 1495 1494 1491 1488 1489 1482 1480 1479 1476 1474 1480 1471 1462 1448 1447 1444 1448 1461 1463 1454 1480 1479 1483 1460 1447 1435 1428 1425 1425 1427 1425 1421 1415
1508 1506 1505 1504 1503 1502 1502 1508 1505 1503 1502 1501 1503 1498 1498 1492 1490 1485 1482 1477 1477 1474 1474 1467 1472 1449 1443 1443 1442 1448 1448 1463 1465 1492 1498 1464 1455 1450 1430 1424 1422 1424 1424 1417 1413
1508 1505 1504 1504 1503 1502 1502 1505 1504 1501 1502 1502 1501 1500 1497 1496 1491 1487 1485 1477 1477 1472 1470 1467 1470 1454 1450 1448 1449 1451 1453 1452 1451 1467 1473 1472 1452 1430 1431 1429 1428 1425 1423 1419 1415
1507 1506 1504 1503 1505 1508 1505 1507 1505 1500 1500 1500 1499 1498 1497 1495 1491 1489 1487 1482 1479 1478 1472 1468 1466 1464 1451 1444 1445 1444 1450 1447 1457 1473 1456 1460 1441 1426 1427 1428 1428 1425 1423 1421 1419
1507 1505 1504 1503 1503 1505 1506 1505 1504 1501 1499 1497 1497 1496 1495 1493 1495 1488 1484 1480 1479 1477 1474 1470 1466 1466 1456 1449 1444 1450 1452 1449 1452 1454 1445 1448 1434 1426 1429 1428 1429 1427 1424 1423 1422
1508 1505 1504 1504 1505 1505 1505 1504 1502 1500 1500 1499 1497 1495 1494 1492 1492 1489 1484 1479 1478 1475 1474 1472 1469 1467 1466 1461 1454 1458 1453 1451 1454 1459 1436 1430 1425 1424 1431 1431 1432 1429 1427 1425 1423
1509 1509 1508 1504 1507 1507 1507 1506 1503 1501 1499 1498 1496 1496 1497 1495 1491 1489 1484 1479 1474 1472 1472 1471 1472 1467 1457 1453 1453 1452 1449 1450 1454 1450 1451 1427 1431 1437 1436 1436 1438 1432 1429 1426 1426
1510 1510 1509 1509 1509 1508 1507 1504 1502 1502 1502 1497 1498 1496 1495 1493 1491 1490 1487 1484 1477 1470 1471 1471 1469 1465 1458 1450 1450 1448 1447 1447 1447 1442 1441 1437 1436 1442 1440 1441 1440 1435 1432 1431 1432
1508 1508 1509 1508 1508 1506 1502 1502 1502 1504 1500 1499 1499 1498 1493 1490 1490 1486 1484 1480 1477 1477 1474 1475 1467 1464 1461 1452 1448 1450 1447 1447 1446 1445 1449 1447 1444 1449 1443 1444 1443 1439 1435 1434 1436